Tracking 31028 objects as of 18-Jul-2025
HD Live streaming from Space Station
objects crossing your sky now

ISTANBUL-1

Track ISTANBUL-1 now!
10-day predictions
ISTANBUL-1 is classified as:


NORAD ID: 56231
Int'l Code: 2023-084BQ
Perigee: 165.4 km
Apogee: 185.3 km
Inclination: 97.5 °
Period: 87.9 minutes
Semi major axis: 6546 km
RCS: Unknown
Launch date: June 12, 2023
Source: (TBD)
Launch site: AIR FORCE WESTERN TEST RANGE (AFWTR)

Uplink (MHz):
Downlink (MHz):
Beacon (MHz):
Mode:
Call sign:
Status: Unknown

Your satellite tracking list
Your tracking list is empty




NASA's NSSDC Master Catalog

Two Line Element Set (TLE):
1 56231U 23084BQ  25192.12472592  .07066353  26292-5  57727-3 0  9992
2 56231  97.5359 334.9197 0015240 269.1495  90.8058 16.39098235116353
Source of the keplerian elements: AFSPC